Simultaneous Nadir Overpasses (SNOs) Predictions

Prediction of SNOs over PacNW region [( 10.00, 139.50) to ( 22.70, 165.60)] between AQUA and NPP Satellites:

Table of predicted SNOs over PacNW region for the next 30.0 days since TLE Epoch: 10/19/2012
Index Date (AQUA) Time (AQUA) AQUA Lat,Lon Date (NPP) Time (NPP) NPP Lat,Lon Distance(km) Time Diff (sec)
1 10/25/2012 15:59:09 22.62, 147.44 10/25/2012 15:59:37 23.27, 144.61 297.88 28
2 11/02/2012 15:10:21 20.15, 159.22 11/02/2012 15:09:39 20.65, 156.64 275.41 42
3 11/10/2012 15:59:03 22.63, 147.46 11/10/2012 15:59:39 23.29, 144.60 301.43 36




NCC Satellite Simultaneous Nadir Overpasses (SNOs) Prediction Service
